Location: Elende
(51.4317°N, 10.6316°E)
Time: 16:00:31
(UTC+00:00)

CZ-2C R/B - Pass Details

Date: 18 September 2020
Orbit: 785 x 870 km, 98.2° (Epoch: 22 October)

Event Time Altitude Azimuth Distance (km) Brightness Sun altitude
Rises 19:15:17 0° 14° (NNE) 3,406 6.0 -17.5°
Reaches altitude 10° 19:17:38 10° 15° (NNE) 2,478 5.3 -17.8°
Maximum altitude 19:23:11 89° 103° (ESE) 865 2.7 -18.6°
Drops below altitude 10° 19:28:46 10° 196° (SSW) 2,503 5.0 -19.4°
Sets 19:31:09 0° 197° (SSW) 3,441 5.7 -19.7°
